EN

Hourly Weather Orzezyn

Today, 16 May, Sunday

Time Temperature Precipitation Wind Pressure Humidity
00:00 +11°C° 0 mm 1 mps 741 mmHg 93%
01:00 +10°C° 0 mm 2 mps 741 mmHg 93%
02:00 +10°C° 0.4 mm 2 mps 741 mmHg 94%
03:00 +10°C° 0.4 mm 2 mps 740 mmHg 94%
04:00 +10°C° 0.4 mm 2 mps 740 mmHg 95%
05:00 +12°C° 0.3 mm 2 mps 740 mmHg 93%
06:00 +12°C° 0.3 mm 3 mps 741 mmHg 91%
07:00 +13°C° 0.3 mm 3 mps 741 mmHg 88%
08:00 +13°C° 0.5 mm 3 mps 741 mmHg 85%
09:00 +14°C° 0.5 mm 3 mps 741 mmHg 81%
10:00 +16°C° 0.5 mm 3 mps 741 mmHg 78%
11:00 +16°C° 0.4 mm 3 mps 741 mmHg 74%
12:00 +16°C° 0.4 mm 3 mps 741 mmHg 71%
13:00 +15°C° 0.4 mm 4 mps 741 mmHg 68%
14:00 +16°C° 0.1 mm 3 mps 740 mmHg 68%
15:00 +16°C° 0.1 mm 3 mps 740 mmHg 67%
16:00 +16°C° 0.1 mm 3 mps 740 mmHg 67%
17:00 +15°C° 0.1 mm 2 mps 740 mmHg 71%
18:00 +15°C° 0.1 mm 2 mps 740 mmHg 76%
19:00 +14°C° 0.1 mm 1 mps 740 mmHg 80%
20:00 +13°C° 0 mm 1 mps 740 mmHg 83%
21:00 +12°C° 0 mm 2 mps 740 mmHg 86%
22:00 +10°C° 0 mm 2 mps 740 mmHg 89%
23:00 +10°C° 0.1 mm 2 mps 740 mmHg 90%

Tomorrow, 17 May, Monday

Time Temperature Precipitation Wind Pressure Humidity
00:00 +9°C° 0.1 mm 2 mps 740 mmHg 91%
01:00 +9°C° 0.1 mm 3 mps 740 mmHg 92%
02:00 +8°C° 0 mm 3 mps 740 mmHg 92%
03:00 +8°C° 0 mm 2 mps 740 mmHg 92%
04:00 +8°C° 0 mm 2 mps 740 mmHg 92%
05:00 +9°C° 0 mm 3 mps 740 mmHg 88%
06:00 +11°C° 0 mm 3 mps 740 mmHg 84%
07:00 +12°C° 0 mm 3 mps 740 mmHg 80%
08:00 +12°C° 0.1 mm 3 mps 740 mmHg 80%
09:00 +12°C° 0.1 mm 3 mps 740 mmHg 81%
10:00 +13°C° 0.1 mm 4 mps 741 mmHg 82%
11:00 +12°C° 0.8 mm 3 mps 741 mmHg 85%
12:00 +12°C° 0.8 mm 3 mps 741 mmHg 88%
13:00 +11°C° 0.8 mm 3 mps 741 mmHg 91%
14:00 +11°C° 1 mm 3 mps 741 mmHg 91%
15:00 +11°C° 1 mm 3 mps 741 mmHg 92%
16:00 +11°C° 1 mm 3 mps 741 mmHg 92%
17:00 +10°C° 0.4 mm 3 mps 740 mmHg 92%
18:00 +10°C° 0.4 mm 2 mps 740 mmHg 92%
19:00 +10°C° 0.4 mm 2 mps 740 mmHg 92%
20:00 +10°C° 0.7 mm 2 mps 740 mmHg 93%
21:00 +10°C° 0.7 mm 2 mps 740 mmHg 94%
22:00 +10°C° 0.7 mm 3 mps 740 mmHg 95%
23:00 +10°C° 0.7 mm 3 mps 740 mmHg 95%

Day after tomorrow, 18 May, Tuesday

Time Temperature Precipitation Wind Pressure Humidity
00:00 +10°C° 0.7 mm 4 mps 740 mmHg 95%
01:00 +9°C° 0.7 mm 5 mps 740 mmHg 95%
02:00 +8°C° 0.3 mm 6 mps 740 mmHg 95%
03:00 +8°C° 0.3 mm 6 mps 740 mmHg 94%
04:00 +7°C° 0.3 mm 6 mps 740 mmHg 94%
05:00 +8°C° 0 mm 6 mps 741 mmHg 92%
06:00 +8°C° 0 mm 7 mps 741 mmHg 90%
07:00 +8°C° 0 mm 7 mps 741 mmHg 89%
08:00 +9°C° 0 mm 7 mps 741 mmHg 86%
09:00 +10°C° 0 mm 7 mps 741 mmHg 84%
10:00 +10°C° 0 mm 6 mps 741 mmHg 81%
11:00 +11°C° 0.2 mm 7 mps 741 mmHg 76%
12:00 +14°C° 0.2 mm 7 mps 742 mmHg 71%
13:00 +15°C° 0.2 mm 7 mps 742 mmHg 66%
14:00 +14°C° 0.2 mm 7 mps 742 mmHg 68%
15:00 +14°C° 0.2 mm 7 mps 742 mmHg 70%
16:00 +14°C° 0.2 mm 7 mps 742 mmHg 71%
17:00 +13°C° 0.1 mm 6 mps 742 mmHg 76%
18:00 +12°C° 0.1 mm 4 mps 742 mmHg 80%
19:00 +11°C° 0.1 mm 3 mps 743 mmHg 84%
20:00 +10°C° 0 mm 3 mps 743 mmHg 87%
21:00 +9°C° 0 mm 3 mps 743 mmHg 90%
22:00 +8°C° 0 mm 3 mps 744 mmHg 92%
23:00 +7°C° 0 mm 4 mps 744 mmHg 93%

19 May, Wednesday

Time Temperature Precipitation Wind Pressure Humidity
00:00 +7°C° 0 mm 4 mps 744 mmHg 94%
01:00 +6°C° 0 mm 4 mps 744 mmHg 94%
02:00 +6°C° 0 mm 4 mps 745 mmHg 95%
03:00 +6°C° 0 mm 4 mps 745 mmHg 95%
04:00 +6°C° 0 mm 4 mps 745 mmHg 96%
05:00 +7°C° 0 mm 5 mps 746 mmHg 91%
06:00 +8°C° 0 mm 5 mps 746 mmHg 86%
07:00 +9°C° 0 mm 6 mps 746 mmHg 81%
08:00 +10°C° 0.1 mm 6 mps 746 mmHg 76%
09:00 +11°C° 0.1 mm 6 mps 747 mmHg 70%
10:00 +12°C° 0.1 mm 7 mps 747 mmHg 65%
11:00 +13°C° 0.2 mm 6 mps 747 mmHg 67%
12:00 +13°C° 0.2 mm 6 mps 747 mmHg 69%
13:00 +13°C° 0.2 mm 6 mps 747 mmHg 71%
14:00 +13°C° 0.2 mm 6 mps 747 mmHg 67%
15:00 +14°C° 0.2 mm 5 mps 747 mmHg 64%
16:00 +14°C° 0.2 mm 5 mps 747 mmHg 60%
17:00 +13°C° 0.1 mm 4 mps 747 mmHg 66%
18:00 +12°C° 0.1 mm 4 mps 747 mmHg 73%
19:00 +10°C° 0.1 mm 3 mps 748 mmHg 79%
20:00 +9°C° 0 mm 3 mps 748 mmHg 83%
21:00 +8°C° 0 mm 3 mps 748 mmHg 87%
22:00 +7°C° 0 mm 3 mps 748 mmHg 91%
23:00 +6°C° 0 mm 4 mps 748 mmHg 92%

20 May, Thursday

Time Temperature Precipitation Wind Pressure Humidity
00:00 +6°C° 0 mm 4 mps 748 mmHg 93%
01:00 +6°C° 0 mm 4 mps 748 mmHg 95%
02:00 +6°C° 0 mm 4 mps 748 mmHg 95%
03:00 +6°C° 0 mm 5 mps 749 mmHg 95%
04:00 +5°C° 0 mm 5 mps 749 mmHg 95%
05:00 +6°C° 0 mm 5 mps 749 mmHg 91%
06:00 +8°C° 0 mm 6 mps 749 mmHg 86%
07:00 +9°C° 0 mm 6 mps 749 mmHg 82%
08:00 +10°C° 0.2 mm 6 mps 749 mmHg 77%
09:00 +11°C° 0.2 mm 7 mps 749 mmHg 71%
10:00 +11°C° 0.2 mm 7 mps 749 mmHg 66%
11:00 +12°C° 0.2 mm 7 mps 749 mmHg 65%
12:00 +12°C° 0.2 mm 7 mps 748 mmHg 64%
13:00 +14°C° 0.2 mm 7 mps 748 mmHg 62%
14:00 +14°C° 0.1 mm 6 mps 748 mmHg 62%
15:00 +14°C° 0.1 mm 5 mps 748 mmHg 63%
16:00 +14°C° 0.1 mm 4 mps 748 mmHg 63%
17:00 +13°C° 0.1 mm 4 mps 747 mmHg 67%
18:00 +12°C° 0.1 mm 3 mps 747 mmHg 71%
19:00 +12°C° 0.1 mm 2 mps 747 mmHg 75%
20:00 +12°C° 0 mm 2 mps 746 mmHg 77%
21:00 +10°C° 0 mm 3 mps 746 mmHg 80%
22:00 +9°C° 0 mm 3 mps 746 mmHg 82%
23:00 +10°C° 0 mm 4 mps 745 mmHg 81%

21 May, Friday

Time Temperature Precipitation Wind Pressure Humidity
00:00 +10°C° 0 mm 4 mps 745 mmHg 79%
01:00 +11°C° 0 mm 4 mps 744 mmHg 78%
02:00 +10°C° 0.1 mm 5 mps 743 mmHg 78%
03:00 +10°C° 0.1 mm 5 mps 743 mmHg 78%
04:00 +10°C° 0.1 mm 6 mps 742 mmHg 79%
05:00 +11°C° 0 mm 7 mps 742 mmHg 76%
06:00 +12°C° 0 mm 8 mps 742 mmHg 73%
07:00 +13°C° 0 mm 8 mps 742 mmHg 70%
08:00 +13°C° 0.1 mm 9 mps 742 mmHg 67%
09:00 +14°C° 0.1 mm 10 mps 742 mmHg 64%
10:00 +14°C° 0.1 mm 10 mps 743 mmHg 62%
11:00 +14°C° 0.1 mm 10 mps 743 mmHg 61%
12:00 +15°C° 0.1 mm 9 mps 743 mmHg 61%
13:00 +15°C° 0.1 mm 9 mps 743 mmHg 60%
14:00 +15°C° 0.1 mm 8 mps 743 mmHg 60%
15:00 +15°C° 0.1 mm 8 mps 743 mmHg 61%
16:00 +15°C° 0.1 mm 7 mps 743 mmHg 61%
17:00 +14°C° 0.1 mm 7 mps 743 mmHg 64%
18:00 +12°C° 0.1 mm 7 mps 743 mmHg 68%
19:00 +11°C° 0.1 mm 6 mps 744 mmHg 71%
20:00 +11°C° 0 mm 6 mps 744 mmHg 70%
21:00 +10°C° 0 mm 6 mps 744 mmHg 70%
22:00 +10°C° 0 mm 7 mps 744 mmHg 69%
23:00 +9°C° 0 mm 7 mps 745 mmHg 72%
Show more

We Need Your Consent

Meteoprog and our Service Providers may store and access personal data such as cookies, device identifiers or other similar technologies on your device and process such data to personalise content and ads, as well as provide social media features and to analyse the traffic.

  • Store and/or access information on your device

    Cookies, device identifiers or other information can be stored or accessed on your device for the purposes indicated above.

  • Personalised ads and content, ad and content measurement, audience insights, and products development

    Ads and content can be personalised based on a profile. More data can be added to better personalise ads and content. Ad and content performance can be measured. Insights about the audience who saw the ads and content can be derived. Such data can be used to develop or improve user’s experience, systems and software.

By clicking ‘I Agree’ you will allow the use of indicated cookies, device identifiers, web beacons or other similar technologies. Your settings can be changed in the browser on your device.

For certain purposes, legitimate interests may be relied on, rather than consent. You can read more about this in our Privacy and Cookie Policy.